Photometre #718[NE_1.6] Antikythera_NOA AOT

File : 20200926_718.hum

26/09/2020,05:02:48,TEMP=23.5,BA=5.40,STAT.A=1.0,ExtBa=11.49
26/09/2020,05:06:00,TEMP=23.8,BA=5.40,STAT.A=1.0,ExtBa=11.47
26/09/2020,05:09:21,TEMP=24.0,BA=5.40,STAT.D=1.0,ExtBa=11.51
26/09/2020,05:11:17,TEMP=24.3,BA=5.36,STAT.A=1.0,ExtBa=11.49
26/09/2020,05:14:07,TEMP=24.5,BA=5.36,STAT.A=1.0,ExtBa=11.52
26/09/2020,05:18:21,TEMP=24.7,BA=5.36,STAT.D=1.0,ExtBa=11.58
26/09/2020,05:20:17,TEMP=25.2,BA=5.36,STAT.A=1.0,ExtBa=11.56
26/09/2020,05:24:21,TEMP=25.3,BA=5.36,STAT.D=1.0,ExtBa=11.62
26/09/2020,05:26:25,TEMP=25.7,BA=5.36,STAT.A=1.0,ExtBa=11.57
26/09/2020,05:30:21,TEMP=25.8,BA=5.48,STAT.D=1.0,ExtBa=11.64
26/09/2020,05:33:21,TEMP=26.0,BA=5.48,STAT.D=1.0,ExtBa=11.67
26/09/2020,05:35:16,TEMP=26.3,BA=5.48,STAT.B=1.0,ExtBa=11.61
26/09/2020,05:45:39,TEMP=26.5,BA=5.36,STAT.A=1.0,ExtBa=11.57
26/09/2020,05:47:43,TEMP=26.8,BA=5.36,STAT.A=1.0,ExtBa=11.61
26/09/2020,05:49:48,TEMP=27.0,BA=5.36,STAT.A=1.0,ExtBa=11.53
26/09/2020,05:53:12,TEMP=26.8,BA=5.36,STAT.A=1.0,ExtBa=11.62
26/09/2020,05:57:21,TEMP=26.9,BA=5.36,STAT.D=1.5,ExtBa=11.75
26/09/2020,05:59:41,TEMP=27.2,BA=5.36,STAT.C=1.5,ExtBa=11.74
26/09/2020,06:15:13,TEMP=26.8,BA=5.36,STAT.A=1.5,ExtBa=11.59
26/09/2020,06:17:18,TEMP=27.0,BA=5.36,STAT.A=1.5,ExtBa=11.64
26/09/2020,06:21:22,TEMP=26.9,BA=5.44,STAT.D=1.5,ExtBa=11.75
26/09/2020,06:24:22,TEMP=27.1,BA=5.44,STAT.D=1.5,ExtBa=11.78
26/09/2020,06:26:33,TEMP=27.4,BA=5.44,STAT.A=1.5,ExtBa=11.77
26/09/2020,06:30:22,TEMP=27.3,BA=5.48,STAT.D=1.5,ExtBa=11.85
26/09/2020,06:33:22,TEMP=27.4,BA=5.48,STAT.D=1.5,ExtBa=11.75
26/09/2020,06:36:22,TEMP=27.3,BA=5.48,STAT.D=1.5,ExtBa=11.66
26/09/2020,06:39:22,TEMP=27.2,BA=5.48,STAT.D=1.5,ExtBa=11.81
26/09/2020,06:41:23,TEMP=27.4,BA=5.36,STAT.A=1.5,ExtBa=11.79
26/09/2020,06:45:22,TEMP=27.2,BA=5.36,STAT.D=1.5,ExtBa=11.86
26/09/2020,06:48:22,TEMP=27.4,BA=5.36,STAT.D=1.5,ExtBa=11.88
26/09/2020,06:51:22,TEMP=27.4,BA=5.44,STAT.D=1.5,ExtBa=11.88
26/09/2020,06:54:22,TEMP=27.4,BA=5.44,STAT.D=1.5,ExtBa=11.88
26/09/2020,06:56:18,TEMP=27.7,BA=5.44,STAT.B=1.5,ExtBa=11.87
26/09/2020,07:06:26,TEMP=27.7,BA=5.36,STAT.D=1.5,ExtBa=11.75
26/09/2020,07:09:22,TEMP=27.9,BA=5.36,STAT.D=1.5,ExtBa=11.81
26/09/2020,07:12:22,TEMP=28.0,BA=5.36,STAT.D=1.5,ExtBa=11.85
26/09/2020,07:15:22,TEMP=28.1,BA=5.36,STAT.D=1.5,ExtBa=11.87
26/09/2020,07:18:22,TEMP=28.3,BA=5.36,STAT.D=1.5,ExtBa=11.89
26/09/2020,07:20:22,TEMP=28.6,BA=5.40,STAT.F,ExtBa=11.86
26/09/2020,07:35:48,TEMP=28.5,BA=5.36,STAT.D=1.5,ExtBa=11.74
26/09/2020,07:39:22,TEMP=28.5,BA=5.36,STAT.D=1.5,ExtBa=11.81
26/09/2020,07:42:22,TEMP=28.7,BA=5.36,STAT.D=1.5,ExtBa=11.83
26/09/2020,07:45:22,TEMP=28.8,BA=5.36,STAT.D=1.5,ExtBa=11.85
26/09/2020,07:48:22,TEMP=28.8,BA=5.36,STAT.D=1.5,ExtBa=11.87
26/09/2020,07:50:24,TEMP=29.0,BA=5.36,STAT.D=1.5,ExtBa=11.84
26/09/2020,07:54:22,TEMP=28.8,BA=5.36,STAT.D=1.5,ExtBa=11.88
26/09/2020,07:57:22,TEMP=28.9,BA=5.36,STAT.D=1.5,ExtBa=11.89
26/09/2020,08:00:22,TEMP=28.9,BA=5.44,STAT.D=1.5,ExtBa=11.89
26/09/2020,08:03:22,TEMP=29.0,BA=5.44,STAT.D=1.5,ExtBa=11.89
26/09/2020,08:05:17,TEMP=29.2,BA=5.44,STAT.D=1.5,ExtBa=11.88
26/09/2020,08:35:36,TEMP=29.5,BA=5.36,STAT.b=1.5
26/09/2020,08:36:22,TEMP=29.4,BA=5.36,STAT.D=1.5,ExtBa=11.76
26/09/2020,08:39:23,TEMP=29.6,BA=5.36,STAT.D=1.5,ExtBa=11.80
26/09/2020,08:42:23,TEMP=29.7,BA=5.36,STAT.D=1.5,ExtBa=11.82
26/09/2020,08:45:23,TEMP=29.7,BA=5.36,STAT.D=1.5,ExtBa=11.83
26/09/2020,08:48:23,TEMP=29.8,BA=5.36,STAT.D=1.5,ExtBa=11.83
26/09/2020,08:50:19,TEMP=30.0,BA=5.40,STAT.D=1.5,ExtBa=11.83
26/09/2020,08:54:23,TEMP=29.8,BA=5.40,STAT.D=1.5,ExtBa=11.85
26/09/2020,08:57:23,TEMP=29.9,BA=5.40,STAT.D=1.5,ExtBa=11.85
26/09/2020,09:00:23,TEMP=30.0,BA=5.44,STAT.D=1.5,ExtBa=11.85
26/09/2020,09:03:23,TEMP=30.1,BA=5.44,STAT.D=1.5,ExtBa=11.86
26/09/2020,09:05:19,TEMP=30.3,BA=5.44,STAT.D=1.5,ExtBa=11.84
26/09/2020,09:09:23,TEMP=30.0,BA=5.44,STAT.D=1.5,ExtBa=11.86
26/09/2020,09:12:23,TEMP=30.0,BA=5.36,STAT.D=1.5,ExtBa=11.85
26/09/2020,09:15:23,TEMP=30.0,BA=5.36,STAT.D=1.5,ExtBa=11.85
26/09/2020,09:18:23,TEMP=30.0,BA=5.36,STAT.D=1.5,ExtBa=11.84
26/09/2020,09:20:07,TEMP=30.2,BA=5.36,STAT.F,ExtBa=11.84
26/09/2020,09:27:23,TEMP=29.9,BA=5.36,STAT.D=1.5,ExtBa=11.78
26/09/2020,09:30:23,TEMP=30.0,BA=5.44,STAT.D=1.5,ExtBa=11.79
26/09/2020,09:33:23,TEMP=30.0,BA=5.44,STAT.D=1.5,ExtBa=11.79
26/09/2020,09:35:19,TEMP=30.2,BA=5.44,STAT.D=1.5,ExtBa=11.77
26/09/2020,09:39:23,TEMP=29.9,BA=5.44,STAT.D=1.5,ExtBa=11.79
26/09/2020,09:42:23,TEMP=29.9,BA=5.36,STAT.D=1.5,ExtBa=11.79
26/09/2020,09:45:23,TEMP=29.9,BA=5.36,STAT.D=1.5,ExtBa=11.79
26/09/2020,09:48:23,TEMP=29.9,BA=5.36,STAT.D=1.5,ExtBa=11.79
26/09/2020,09:50:18,TEMP=30.1,BA=5.40,STAT.D=1.5,ExtBa=11.77
26/09/2020,09:54:23,TEMP=29.9,BA=5.40,STAT.D=1.5,ExtBa=11.77
26/09/2020,09:57:23,TEMP=30.1,BA=5.40,STAT.D=1.5,ExtBa=11.76
26/09/2020,10:00:23,TEMP=30.2,BA=5.44,STAT.D=1.5,ExtBa=11.77
26/09/2020,10:03:23,TEMP=30.3,BA=5.44,STAT.D=1.5,ExtBa=11.76
26/09/2020,10:05:19,TEMP=30.6,BA=5.44,STAT.D=1.5,ExtBa=11.75
26/09/2020,10:09:23,TEMP=30.4,BA=5.44,STAT.D=1.5,ExtBa=11.76
26/09/2020,10:12:23,TEMP=30.4,BA=5.36,STAT.D=1.5,ExtBa=11.76
26/09/2020,10:15:23,TEMP=30.4,BA=5.36,STAT.D=1.5,ExtBa=11.75
26/09/2020,10:18:23,TEMP=30.4,BA=5.36,STAT.D=1.5,ExtBa=11.74
26/09/2020,10:20:18,TEMP=30.5,BA=5.36,STAT.F,ExtBa=11.72
26/09/2020,10:27:23,TEMP=29.9,BA=5.36,STAT.D=1.5,ExtBa=11.67
26/09/2020,10:30:23,TEMP=29.9,BA=5.44,STAT.D=1.5,ExtBa=11.67
26/09/2020,10:33:23,TEMP=29.9,BA=5.44,STAT.D=1.5,ExtBa=11.67
26/09/2020,10:35:21,TEMP=30.0,BA=5.44,STAT.D=1.5,ExtBa=11.65
26/09/2020,10:39:23,TEMP=29.5,BA=5.44,STAT.D=1.5,ExtBa=11.67
26/09/2020,10:42:23,TEMP=29.4,BA=5.36,STAT.D=1.5,ExtBa=11.65
26/09/2020,10:45:23,TEMP=29.5,BA=5.36,STAT.D=1.5,ExtBa=11.64
26/09/2020,10:48:23,TEMP=29.7,BA=5.36,STAT.D=1.5,ExtBa=11.64
26/09/2020,10:50:19,TEMP=29.9,BA=5.40,STAT.D=1.5,ExtBa=11.63
26/09/2020,10:54:23,TEMP=29.9,BA=5.40,STAT.D=1.5,ExtBa=11.64
26/09/2020,10:57:23,TEMP=30.0,BA=5.40,STAT.D=1.5,ExtBa=11.63
26/09/2020,11:00:23,TEMP=30.0,BA=5.44,STAT.D=1.5,ExtBa=11.63
26/09/2020,11:03:23,TEMP=30.1,BA=5.44,STAT.D=1.5,ExtBa=11.62
26/09/2020,11:05:22,TEMP=30.3,BA=5.44,STAT.D=1.5,ExtBa=11.60
26/09/2020,11:09:23,TEMP=29.7,BA=5.44,STAT.D=1.5,ExtBa=11.62
26/09/2020,11:12:23,TEMP=29.6,BA=5.36,STAT.D=1.5,ExtBa=11.62
26/09/2020,11:15:23,TEMP=29.3,BA=5.36,STAT.D=1.5,ExtBa=11.59
26/09/2020,11:18:28,TEMP=28.9,BA=5.36,STAT.F,ExtBa=11.62
26/09/2020,11:30:23,TEMP=28.6,BA=5.44,STAT.D=1.5,ExtBa=11.64
26/09/2020,11:33:23,TEMP=28.7,BA=5.44,STAT.D=1.5,ExtBa=11.60
26/09/2020,11:35:50,TEMP=28.7,BA=5.44,STAT.D=1.5,ExtBa=11.58
26/09/2020,11:48:23,TEMP=27.7,BA=5.44,STAT.D=1.5,ExtBa=11.63
26/09/2020,11:50:16,TEMP=27.9,BA=5.40,STAT.D=1.5,ExtBa=11.62
26/09/2020,12:03:23,TEMP=27.2,BA=5.48,STAT.D=1.5,ExtBa=11.65
26/09/2020,12:05:18,TEMP=27.4,BA=5.48,STAT.D=1.5,ExtBa=11.63
26/09/2020,12:18:22,TEMP=27.1,BA=5.48,STAT.D=1.5,ExtBa=11.66
26/09/2020,12:20:34,TEMP=27.4,BA=5.40,STAT.F,ExtBa=11.60
26/09/2020,12:33:22,TEMP=27.0,BA=5.48,STAT.D=1.5,ExtBa=11.64
26/09/2020,12:35:16,TEMP=27.3,BA=5.48,STAT.D=1.5,ExtBa=11.62
26/09/2020,12:48:22,TEMP=27.0,BA=5.48,STAT.D=1.5,ExtBa=11.64
26/09/2020,12:50:16,TEMP=27.3,BA=5.40,STAT.D=1.5,ExtBa=11.62
26/09/2020,13:03:22,TEMP=26.7,BA=5.48,STAT.D=1.5,ExtBa=11.61
26/09/2020,13:05:16,TEMP=27.0,BA=5.48,STAT.D=1.5,ExtBa=11.59
26/09/2020,13:18:22,TEMP=26.3,BA=5.44,STAT.D=1.5,ExtBa=11.62
26/09/2020,13:20:20,TEMP=26.6,BA=5.44,STAT.F,ExtBa=11.60
26/09/2020,13:33:26,TEMP=26.4,BA=5.40,STAT.D=1.5,ExtBa=11.54
26/09/2020,13:36:22,TEMP=26.5,BA=5.40,STAT.D=1.5,ExtBa=11.53
26/09/2020,13:41:20,TEMP=26.2,BA=5.48,STAT.B=1.5,ExtBa=11.54
26/09/2020,13:54:22,TEMP=25.7,BA=5.48,STAT.D=1.5,ExtBa=11.54
26/09/2020,13:57:29,TEMP=25.8,BA=5.48,STAT.A=1.5,ExtBa=11.53
26/09/2020,14:09:22,TEMP=25.5,BA=5.44,STAT.D=1.5,ExtBa=11.55
26/09/2020,14:11:18,TEMP=25.9,BA=5.40,STAT.A=1.0,ExtBa=11.52
26/09/2020,14:20:53,TEMP=26.1,BA=5.48,STAT.A=1.5,ExtBa=11.53
26/09/2020,14:29:43,TEMP=26.1,BA=5.48,STAT.A=1.5,ExtBa=11.52
26/09/2020,14:33:21,TEMP=26.3,BA=5.40,STAT.D=1.5,ExtBa=11.50
26/09/2020,14:36:21,TEMP=26.4,BA=5.40,STAT.D=1.5,ExtBa=11.49
26/09/2020,14:38:16,TEMP=26.6,BA=5.40,STAT.C=1.0,ExtBa=11.48
26/09/2020,14:53:53,TEMP=26.2,BA=5.40,STAT.A=1.0,ExtBa=11.45
26/09/2020,14:55:59,TEMP=26.3,BA=5.40,STAT.A=1.0,ExtBa=11.45
26/09/2020,14:58:11,TEMP=26.3,BA=5.40,STAT.A=1.0,ExtBa=11.44
26/09/2020,15:00:16,TEMP=26.3,BA=5.36,STAT.A=1.0,ExtBa=11.44
26/09/2020,15:02:41,TEMP=26.2,BA=5.36,STAT.B=1.0,ExtBa=11.44
26/09/2020,15:12:34,TEMP=25.8,BA=5.36,STAT.A=1.0,ExtBa=11.42
26/09/2020,15:15:21,TEMP=25.8,BA=5.36,STAT.D=1.0,ExtBa=11.43
26/09/2020,15:17:29,TEMP=25.9,BA=5.36,STAT.A=1.0,ExtBa=11.42
26/09/2020,15:21:15,TEMP=25.9,BA=5.40,STAT.b=1.0
26/09/2020,15:22:46,TEMP=25.5,BA=5.40,STAT.A=1.0,ExtBa=11.43
26/09/2020,15:27:12,TEMP=25.5,BA=5.40,STAT.A=1.0,ExtBa=11.44
26/09/2020,15:30:21,TEMP=25.4,BA=5.40,STAT.D=1.0,ExtBa=11.43
26/09/2020,15:32:17,TEMP=25.6,BA=5.40,STAT.A=1.0,ExtBa=11.42
26/09/2020,15:34:24,TEMP=25.5,BA=5.40,STAT.A=1.0,ExtBa=11.42